TimePDT,TemperatureF,Dew PointF,Humidity,Sea Level PressureIn,VisibilityMPH,Wind Direction,Wind SpeedMPH,Gust SpeedMPH,PrecipitationIn,Events,Conditions,WindDirDegrees,DateUTC
12:55 AM,64.0,59.0,84,29.88,9.0,Calm,Calm,-,N/A,,Clear,0,2012-10-03 07:55:00
1:55 AM,61.0,57.0,87,29.89,8.0,Calm,Calm,-,N/A,,Clear,0,2012-10-03 08:55:00
2:55 AM,62.1,59.0,90,29.90,7.0,Calm,Calm,-,N/A,,Clear,0,2012-10-03 09:55:00
3:07 AM,62.6,60.8,94,29.88,4.0,Calm,Calm,-,N/A,,Scattered Clouds,0,2012-10-03 10:07:00
3:09 AM,62.6,60.8,94,29.88,1.8,Calm,Calm,-,N/A,,Mostly Cloudy,0,2012-10-03 10:09:00
3:11 AM,60.8,60.8,100,29.88,0.8,Calm,Calm,-,N/A,,Mist,0,2012-10-03 10:11:00
3:39 AM,60.8,57.2,88,29.88,1.8,Calm,Calm,-,N/A,,Overcast,0,2012-10-03 10:39:00
3:46 AM,60.8,57.2,88,29.88,3.0,Calm,Calm,-,N/A,,Mostly Cloudy,0,2012-10-03 10:46:00
3:55 AM,59.0,55.9,90,29.91,8.0,Calm,Calm,-,N/A,,Scattered Clouds,0,2012-10-03 10:55:00
4:55 AM,60.1,57.0,90,29.92,1.2,Calm,Calm,-,N/A,,Scattered Clouds,0,2012-10-03 11:55:00
4:57 AM,59.0,57.2,94,29.89,0.8,SW,3.5,-,N/A,,Mist,220,2012-10-03 11:57:00
5:13 AM,59.0,57.2,94,29.90,0.8,Calm,Calm,-,N/A,,Mist,0,2012-10-03 12:13:00
5:21 AM,59.0,57.2,94,29.90,1.5,Calm,Calm,-,N/A,,Overcast,0,2012-10-03 12:21:00
5:36 AM,60.8,57.2,88,29.91,6.0,Calm,Calm,-,N/A,,Overcast,0,2012-10-03 12:36:00
5:55 AM,60.1,59.0,96,29.94,2.0,Calm,Calm,-,N/A,,Overcast,0,2012-10-03 12:55:00
5:57 AM,60.8,59.0,94,29.91,1.2,Calm,Calm,-,N/A,,Overcast,0,2012-10-03 12:57:00
6:06 AM,60.8,60.8,100,29.92,0.8,Calm,Calm,-,N/A,,Overcast,0,2012-10-03 13:06:00
6:30 AM,60.8,60.8,100,29.92,1.8,Calm,Calm,-,N/A,,Overcast,0,2012-10-03 13:30:00
6:37 AM,60.8,59.0,94,29.92,2.5,Calm,Calm,-,N/A,,Overcast,0,2012-10-03 13:37:00
6:46 AM,60.8,60.8,100,29.93,1.5,Calm,Calm,-,N/A,,Overcast,0,2012-10-03 13:46:00
6:55 AM,61.0,60.1,97,29.96,1.0,NE,3.5,-,N/A,,Overcast,50,2012-10-03 13:55:00
7:53 AM,60.8,60.8,100,29.94,0.2,NE,4.6,-,N/A,Fog,Fog,40,2012-10-03 14:53:00
7:55 AM,61.0,60.1,97,29.97,0.2,NE,4.6,-,N/A,Fog,Fog,40,2012-10-03 14:55:00
8:27 AM,60.8,60.8,100,29.95,2.0,Calm,Calm,-,N/A,,Overcast,0,2012-10-03 15:27:00
8:47 AM,62.6,60.8,94,29.95,2.0,SW,4.6,-,N/A,,Mostly Cloudy,230,2012-10-03 15:47:00
8:55 AM,63.0,60.1,90,29.98,4.0,Calm,Calm,-,N/A,,Scattered Clouds,0,2012-10-03 15:55:00
9:55 AM,66.0,61.0,84,29.99,6.0,SSW,3.5,-,N/A,,Haze,210,2012-10-03 16:55:00
10:55 AM,71.1,62.1,73,29.99,6.0,SW,6.9,-,N/A,,Haze,220,2012-10-03 17:55:00
11:55 AM,68.0,61.0,78,30.00,6.0,South,8.1,-,N/A,,Haze,190,2012-10-03 18:55:00
12:55 PM,70.0,61.0,73,29.99,7.0,SW,10.4,17.3,N/A,,Clear,230,2012-10-03 19:55:00
1:43 PM,69.8,60.8,73,29.96,8.0,SW,9.2,-,N/A,,Mostly Cloudy,220,2012-10-03 20:43:00
1:53 PM,69.8,60.8,73,29.96,8.0,WSW,10.4,-,N/A,,Scattered Clouds,240,2012-10-03 20:53:00
1:55 PM,69.1,61.0,75,29.99,8.0,SW,8.1,-,N/A,,Scattered Clouds,230,2012-10-03 20:55:00
2:55 PM,71.1,62.1,73,29.98,8.0,SW,8.1,-,N/A,,Clear,220,2012-10-03 21:55:00
3:55 PM,72.0,61.0,68,29.98,9.0,SW,8.1,-,N/A,,Clear,230,2012-10-03 22:55:00
4:55 PM,70.0,60.1,71,29.99,9.0,SW,6.9,-,N/A,,Clear,230,2012-10-03 23:55:00
5:55 PM,66.9,60.1,79,29.99,10.0,SW,6.9,-,N/A,,Clear,230,2012-10-04 00:55:00
6:55 PM,64.0,60.1,87,29.99,8.0,WSW,3.5,-,N/A,,Scattered Clouds,250,2012-10-04 01:55:00
7:10 PM,64.4,60.8,88,29.98,9.0,WSW,4.6,-,N/A,,Mostly Cloudy,240,2012-10-04 02:10:00
7:55 PM,64.0,59.0,84,30.01,9.0,West,3.5,-,N/A,,Overcast,270,2012-10-04 02:55:00
8:55 PM,64.0,59.0,84,30.03,10.0,WSW,3.5,-,N/A,,Overcast,240,2012-10-04 03:55:00
9:55 PM,64.0,57.9,80,30.04,10.0,Calm,Calm,-,N/A,,Mostly Cloudy,0,2012-10-04 04:55:00
10:55 PM,64.0,57.9,80,30.05,10.0,West,4.6,-,N/A,,Overcast,260,2012-10-04 05:55:00
11:55 PM,64.0,57.9,80,30.05,10.0,Calm,Calm,-,N/A,,Overcast,0,2012-10-04 06:55:00